TimePDT,TemperatureF,Dew PointF,Humidity,Sea Level PressureIn,VisibilityMPH,Wind Direction,Wind SpeedMPH,Gust SpeedMPH,PrecipitationIn,Events,Conditions,WindDirDegrees,DateUTC
12:56 AM,37.0,32.0,82,30.41,10.0,Calm,Calm,-,N/A,,Clear,0,2013-05-01 07:56:00
1:56 AM,35.1,30.0,82,30.43,10.0,Calm,Calm,-,N/A,,Clear,0,2013-05-01 08:56:00
2:56 AM,32.0,30.0,92,30.45,10.0,ESE,3.5,-,N/A,,Clear,110,2013-05-01 09:56:00
3:56 AM,33.1,30.0,89,30.47,10.0,ESE,5.8,-,N/A,,Clear,110,2013-05-01 10:56:00
4:56 AM,34.0,30.0,85,30.50,10.0,East,3.5,-,N/A,,Clear,100,2013-05-01 11:56:00
5:56 AM,33.1,30.0,89,30.53,10.0,Calm,Calm,-,N/A,,Clear,0,2013-05-01 12:56:00
6:56 AM,36.0,30.9,82,30.56,10.0,Calm,Calm,-,N/A,,Clear,0,2013-05-01 13:56:00
7:56 AM,37.9,32.0,79,30.59,10.0,ENE,5.8,-,N/A,,Clear,60,2013-05-01 14:56:00
8:56 AM,41.0,34.0,76,30.60,10.0,North,5.8,-,N/A,,Clear,360,2013-05-01 15:56:00
9:56 AM,46.0,34.0,63,30.61,10.0,NNE,3.5,-,N/A,,Clear,20,2013-05-01 16:56:00
10:56 AM,51.1,35.1,54,30.61,10.0,Variable,3.5,-,N/A,,Clear,0,2013-05-01 17:56:00
11:56 AM,53.1,32.0,45,30.60,10.0,Variable,3.5,-,N/A,,Clear,0,2013-05-01 18:56:00
12:56 PM,57.0,27.0,32,30.58,10.0,Variable,3.5,-,N/A,,Clear,0,2013-05-01 19:56:00
1:56 PM,59.0,21.0,23,30.58,10.0,NE,5.8,-,N/A,,Clear,50,2013-05-01 20:56:00
2:56 PM,60.1,21.9,23,30.58,10.0,Variable,4.6,-,N/A,,Clear,0,2013-05-01 21:56:00
3:56 PM,61.0,23.0,23,30.57,10.0,Variable,6.9,-,N/A,,Clear,0,2013-05-01 22:56:00
4:56 PM,60.1,21.0,22,30.57,10.0,NE,6.9,-,N/A,,Clear,40,2013-05-01 23:56:00
5:56 PM,60.1,23.0,24,30.57,10.0,NE,5.8,-,N/A,,Clear,40,2013-05-02 00:56:00
6:56 PM,59.0,23.0,25,30.56,10.0,NE,6.9,-,N/A,,Clear,50,2013-05-02 01:56:00
7:56 PM,55.0,25.0,31,30.58,10.0,East,4.6,-,N/A,,Clear,90,2013-05-02 02:56:00
8:56 PM,51.1,25.0,36,30.59,10.0,SE,4.6,-,N/A,,Clear,130,2013-05-02 03:56:00
9:56 PM,45.0,25.0,46,30.61,10.0,SE,5.8,-,N/A,,Clear,140,2013-05-02 04:56:00
10:56 PM,46.9,24.1,41,30.61,10.0,Calm,Calm,-,N/A,,Clear,0,2013-05-02 05:56:00
11:56 PM,41.0,25.0,53,30.62,10.0,SE,3.5,-,N/A,,Clear,130,2013-05-02 06:56:00